Miscellaneous Local Product
Issued by NWS Hastings, NE

Home | Current Version | Previous Version | Graphics & Text | Print | Product List | Glossary On
Versions: 1 2 3 4 5 6 7 8 9 10 11 12 13 14 15 16 17 18 19 20 21 22 23 24 25 26 27 28 29 30 31 32 33 34 35 36 37 38 39 40 41 42 43 44 45 46 47 48 49 50
883
AXUS43 KGID 252302
MISGRI

GID CWA HOURLY WEATHER ROUNDUP
NATIONAL WEATHER SERVICE HASTINGS NE
600 PM CDT MON JUL 25 2016

NOTE: "FAIR" INDICATES FEW OR NO CLOUDS BELOW 12,000 FEET WITH NO
SIGNIFICANT WEATHER AND/OR OBSTRUCTIONS TO VISIBILITY.

...SOUTH CENTRAL NEBRASKA...

CITY           SKY/WX    TMP DP  RH WIND       PRES   REMARKS
GRAND ISLAND   SUNNY     85  62  46 SE7       30.07F
HASTINGS       SUNNY     87  49  26 SE8       30.06F
KEARNEY        MOSUNNY   86  64  48 SE9       30.07F
ORD            SUNNY     87  57  35 SE9       30.05F
YORK           SUNNY     82  63  51 SE8       30.06F
AURORA         SUNNY     84  64  51 E5        30.07S
LEXINGTON      SUNNY     85  67  54 SE10      30.06F
HOLDREGE       SUNNY     84  64  50 SE7       30.06F
HEBRON         SUNNY     87  60  40 NE6       30.04F

...NEBRASKA PANHANDLE...

CITY           SKY/WX    TMP DP  RH WIND       PRES   REMARKS
CHADRON        SUNNY     94  55  26 S15G26    29.99F HX  92
ALLIANCE       SUNNY     87  60  40 S20G29    30.08S
SCOTTSBLUFF    SUNNY     91  53  27 S13       30.03F
SIDNEY         SUNNY     88  59  37 S21G35    30.12F

...WESTERN AND NORTH CENTRAL NEBRASKA...

CITY           SKY/WX    TMP DP  RH WIND       PRES   REMARKS
VALENTINE      SUNNY     89  57  33 S12G24    30.05F
AINSWORTH      SUNNY     86  57  36 S13G21    30.07F
ONEILL         SUNNY     89  49  25 S10       30.07F
BROKEN BOW     SUNNY     84  65  52 SE12      30.08F
IMPERIAL       SUNNY     88  59  37 S15       30.07F
NORTH PLATTE   SUNNY     85  66  53 SE9G20    30.07F
MCCOOK         MOSUNNY   89  63  41 SE14      30.05F HX  90

...EASTERN NEBRASKA...

CITY           SKY/WX    TMP DP  RH WIND       PRES   REMARKS
NORFOLK        SUNNY     85  58  39 VRB6      30.06F
SO SIOUX CITY  SUNNY     88  60  38 SE6       30.04F
TEKAMAH        SUNNY     87  63  44 VRB3      30.04F
COLUMBUS       SUNNY     84  61  45 E6        30.06F
ALBION         SUNNY     83  63  49 SE7       30.07F
OMAHA EPPLEY   MOSUNNY   88  65  46 NE7       30.04F HX  90
OFFUTT AFB     SUNNY     87  65  49 E8        30.04F
MILLARD        SUNNY     87  59  38 NE3       30.04F
LINCOLN        SUNNY     87  63  44 NE8       30.05F
NEBRASKA CITY  SUNNY     83  64  54 NE10      30.04F
BEATRICE       SUNNY     87  59  38 E8        30.04F
FALLS CITY     SUNNY     85  69  58 N8        30.03S

...NORTHERN KANSAS...

CITY           SKY/WX    TMP DP  RH WIND       PRES   REMARKS
GOODLAND       SUNNY     84  63  49 S13       30.10F
HILL CITY      SUNNY     86  66  51 SE9       30.04F
NORTON         CLEAR     88  55  33 SE9       30.05S
SMITH CENTER   SUNNY     86  64  48 SE8       30.05S
BELOIT         SUNNY     86  66  51 CALM      30.02F
HAYS           MOSUNNY   84  63  48 SE7       30.04F
RUSSELL        SUNNY     85  64  49 E12       30.03F
CONCORDIA      SUNNY     85  61  44 E8        30.04F
SALINA         SUNNY     87  65  47 E8        30.03F
TOPEKA         MOSUNNY   85  69  58 E6        30.03S



USA.gov is the U.S. government's official web portal to all federal, state and local government web resources and services.